[[{"header":{"parameterUnit":"m.s-1","parameterCategory":2,"la1":30.2991,"la2":30.254,"lo1":-89.0895,"lo2":-89.0444,"dy":0.0017,"dx":0.0017,"nx":28,"ny":28,"refTime":"2025-11-18T09:00:00:Z","depth":"0","parameterNumber":2,"parameterNumberName":"U-component_of_CURRENTS"},"data":[0,0,0,0,0,0,0,0,0,0,0,0,0,0,0,0,0,0,0,0,0,0,0,0,0,0,0,0,0,0,0,0,0,0,0,0,0,0,0,0,0,0,0,0,0,0,0,0,0,0,0,0,0,0,0,0,0,0,0.3313,0.3314,0,0.3469,0.3471,0.3472,0.3538,0.3538,0.3538,0.3538,0.3635,0.3637,0.364,0,0,0,0,0,0,0,0,0,0,0,0,0,0.3135,0.3137,0.3312,0.3315,0.3317,0.3469,0.3471,0.3473,0.3538,0.3538,0.3538,0.3538,0.3634,0.3637,0.364,0,0,0,0,0,0,0,0,0,0,0,0,0,0.3241,0.3138,0.3312,0.3369,0.3376,0.3469,0.3471,0.3473,0.3538,0.3538,0.3538,0.3538,0.3633,0.3637,0.3641,0.3669,0,0,0.3653,0.3655,0,0,0,0,0,0,0,0,0.3235,0.3248,0.3359,0.3366,0.3373,0.3486,0.3444,0.3537,0.3538,0.3475,0.3538,0.3538,0.3581,0.3589,0.3617,0.3673,0.3678,0.3653,0.3656,0.3658,0.3659,0,0,0,0,0,0,0,0.3228,0.3242,0.3372,0.3361,0.337,0.341,0.3424,0.3462,0.3524,0.348,0.3486,0.3507,0.3584,0.3613,0.362,0.3679,0.3653,0.3657,0.3659,0.3661,0.3789,0.379,0,0,0,0,0,0,0.321,0.3234,0.3367,0.3377,0.3305,0.3413,0.3429,0.3448,0.3525,0.3538,0.3507,0.3509,0.3606,0.3615,0.3623,0.3686,0.3658,0.3661,0.3664,0.3788,0.3789,0.379,0,0,0,0,0,0,0.3205,0.322,0.3361,0.3311,0.3332,0.3416,0.3438,0.3451,0.3483,0.3546,0.3557,0.3525,0.3606,0.3617,0.3665,0.3689,0.3663,0.3667,0.3787,0.3788,0.379,0.3794,0,0,0,0,0,0,0.3199,0.3217,0.3231,0.331,0.3334,0.3423,0.3438,0.3455,0.3497,0.3502,0.3565,0.3574,0.3607,0.3659,0.3669,0.3694,0.367,0.3786,0.3788,0.3789,0.3793,0.3796,0.3798,0,0,0,0,0,0.3192,0.3214,0.3231,0.3248,0.3349,0.3424,0.3441,0.3498,0.3498,0.3522,0.3559,0.3572,0.3678,0.3663,0.3674,0.3701,0.3785,0.3787,0.3789,0.3792,0.3795,0.3798,0,0,0,0,0,0,0.3149,0.3226,0.3245,0.329,0.3354,0.3436,0.3463,0.3495,0.3545,0.3545,0.3586,0.3599,0.3659,0.3672,0.3655,0.3743,0.3733,0.3738,0.3731,0.3734,0.3737,0.3792,0.3673,0,0,0,0,0,0.3144,0.3178,0.3255,0.3293,0.3315,0.3384,0.3421,0.3464,0.3518,0.354,0.3584,0.3626,0.3679,0.3697,0.375,0.3787,0.385,0.3811,0.3814,0.3816,0.3869,0.3972,0.3989,0.3798,0.3798,0.3798,0,0,0.3139,0.3185,0.3206,0.3286,0.333,0.3384,0.3405,0.3465,0.352,0.3541,0.3611,0.3646,0.3694,0.3753,0.3778,0.3763,0.3898,0.3819,0.382,0.3874,0.3976,0.3995,0.4012,0.3799,0.3799,0.3799,0,0,0.3146,0.318,0.321,0.3262,0.3337,0.3386,0.3399,0.3481,0.3523,0.3589,0.3626,0.3683,0.3738,0.3799,0.3828,0.3875,0.3919,0.3867,0.3916,0.4013,0.403,0.4047,0.4127,0.4151,0.3854,0.3854,0.3854,0,0.3131,0.3193,0.3232,0.3277,0.3333,0.3381,0.3439,0.3487,0.3581,0.3635,0.361,0.3754,0.3776,0.3884,0.3896,0.3888,0.3941,0.3894,0.4019,0.4037,0.4054,0.4132,0.4158,0.3855,0.3854,0.3854,0.3854,0,0.3173,0.3222,0.3241,0.3315,0.3376,0.3434,0.3509,0.3572,0.361,0.3671,0.3784,0.3826,0.3921,0.3914,0.3918,0.4045,0.4044,0.402,0.4013,0.4074,0.4151,0.4179,0.3855,0.3855,0.3855,0.3855,0,0,0.3137,0.3249,0.3253,0.3318,0.3409,0.3475,0.3557,0.3675,0.3759,0.3813,0.3931,0.3997,0.4029,0.4069,0.4079,0.4145,0.4278,0.4127,0.4131,0.4212,0.4492,0.4411,0.4432,0.4268,0.4273,0.4278,0.449,0,0.3159,0.3262,0.331,0.3421,0.3493,0.3572,0.3657,0.3767,0.3846,0.396,0.4018,0.4119,0.408,0.4128,0.4193,0.4271,0.4354,0.4223,0.442,0.4427,0.4352,0.4464,0.4343,0.4516,0.4517,0.4521,0.4525,0,0.3193,0.3268,0.3381,0.353,0.3564,0.3628,0.3811,0.3896,0.4045,0.4108,0.4211,0.4258,0.4383,0.4321,0.4513,0.4428,0.4486,0.4524,0.4533,0.4491,0.4398,0.4462,0.4566,0.4442,0.4567,0.4564,0.4561,0,0.3221,0.3324,0.343,0.3478,0.3635,0.3707,0.3789,0.3946,0.4047,0.4211,0.4301,0.4431,0.4518,0.4613,0.4675,0.4618,0.4872,0.4799,0.4792,0.4786,0.4747,0.4727,0.4769,0.4974,0.4974,0.4973,0.4972,0,0.3278,0.3371,0.3443,0.3524,0.3644,0.3737,0.389,0.3996,0.4149,0.4269,0.4374,0.4492,0.4599,0.4727,0.4763,0.4869,0.4952,0.4864,0.486,0.4737,0.4715,0.4654,0.4593,0.4981,0.4979,0.4978,0.4976,0,0.3352,0.3406,0.3525,0.3642,0.3678,0.377,0.3925,0.4029,0.4178,0.4342,0.4398,0.4588,0.4737,0.4833,0.5,0.499,0.4961,0.51,0.4935,0.4907,0.4731,0.4674,0.4613,0.4472,0.5143,0.5143,0.5143,0,0.3434,0.3489,0.3579,0.3629,0.3686,0.3806,0.3887,0.4034,0.413,0.4383,0.4453,0.466,0.4773,0.4993,0.5023,0.5116,0.4958,0.5057,0.4925,0.4758,0.4695,0.4488,0.4357,0.4876,0.4873,0.4871,0.487,0,0.3561,0.3555,0.3636,0.3686,0.3757,0.3837,0.3945,0.4019,0.4186,0.4319,0.4476,0.4592,0.4805,0.4846,0.4977,0.5007,0.4815,0.5014,0.4912,0.4572,0.4288,0.4135,0.4682,0.4852,0.4854,0.4855,0.4856,0.4857,0.3629,0.3654,0.3686,0.3736,0.3799,0.3826,0.3861,0.3956,0.4072,0.421,0.4381,0.4506,0.4677,0.4829,0.4826,0.4744,0.4677,0.4646,0.4622,0.445,0.4211,0.4703,0.4802,0.4803,0.4804,0.4805,0.4806,0,0.3671,0.3677,0.3727,0.3756,0.3768,0.3801,0.3863,0.3851,0.3898,0.4082,0.4188,0.433,0.4435,0.4528,0.4539,0.4397,0.4198,0.4289,0.4,0.3912,0.445,0.4332,0.4246,0.4246,0.4246,0.4247,0.4247,0.4247,0.3703,0.372,0.3701,0.3696,0.3701,0.3652,0.3645,0.3627,0.3712,0.3757,0.3824,0.3935,0.414,0.4332,0.4233,0.4136,0.3799,0.3672,0.3604,0.4026,0.4056,0.4085,0.3959,0.3796,0.3795,0.2921,0.2915,0.291]},{"header":{"parameterUnit":"m.s-1","parameterCategory":2,"la1":30.2991,"la2":30.254,"lo1":-89.0895,"lo2":-89.0444,"dy":0.0017,"dx":0.0017,"nx":28,"ny":28,"refTime":"2025-11-18T09:00:00:Z","depth":"0","parameterNumber":3,"parameterNumberName":"V-component_of_CURRENTS"},"data":[0,0,0,0,0,0,0,0,0,0,0,0,0,0,0,0,0,0,0,0,0,0,0,0,0,0,0,0,0,0,0,0,0,0,0,0,0,0,0,0,0,0,0,0,0,0,0,0,0,0,0,0,0,0,0,0,0,0,-0.0064,-0.0064,0,-0.0067,-0.0067,-0.0067,-0.0078,-0.0078,-0.0078,-0.0078,-0.0117,-0.0118,-0.0119,0,0,0,0,0,0,0,0,0,0,0,0,0,-0.0064,-0.0064,-0.0064,-0.0064,-0.0063,-0.0067,-0.0067,-0.0067,-0.0078,-0.0078,-0.0078,-0.0078,-0.0117,-0.0118,-0.0119,0,0,0,0,0,0,0,0,0,0,0,0,0,-0.0066,-0.0064,-0.0064,-0.0068,-0.0069,-0.0067,-0.0067,-0.0067,-0.0078,-0.0078,-0.0078,-0.0078,-0.0116,-0.0118,-0.0119,-0.0124,0,0,-0.0123,-0.0124,0,0,0,0,0,0,0,0,-0.0066,-0.0066,-0.0068,-0.0068,-0.0068,-0.0071,-0.0081,-0.0087,-0.0078,-0.0076,-0.0078,-0.0078,-0.0104,-0.0106,-0.0108,-0.0126,-0.0127,-0.0123,-0.0124,-0.0125,-0.0125,0,0,0,0,0,0,0,-0.0066,-0.0066,-0.0066,-0.0068,-0.0068,-0.0069,-0.007,-0.0082,-0.009,-0.0076,-0.0076,-0.0075,-0.0105,-0.0106,-0.0109,-0.0128,-0.0123,-0.0124,-0.0125,-0.0126,-0.0139,-0.0139,0,0,0,0,0,0,-0.0063,-0.0066,-0.0066,-0.0066,-0.0066,-0.0069,-0.007,-0.0071,-0.0089,-0.0092,-0.0074,-0.0075,-0.0104,-0.0107,-0.011,-0.0077,-0.0125,-0.0126,-0.0127,-0.014,-0.0139,-0.0139,0,0,0,0,0,0,-0.0063,-0.0063,-0.0066,-0.0065,-0.0065,-0.0069,-0.007,-0.0071,-0.0071,-0.0088,-0.0091,-0.0073,-0.0104,-0.0108,-0.0109,-0.008,-0.0127,-0.0128,-0.014,-0.014,-0.0139,-0.0035,0,0,0,0,0,0,-0.0063,-0.0063,-0.0065,-0.0065,-0.0065,-0.0056,-0.007,-0.0071,-0.0069,-0.007,-0.0088,-0.0091,-0.0105,-0.0107,-0.011,-0.0083,-0.0129,-0.0141,-0.014,-0.0139,-0.0039,-0.0031,-0.0024,0,0,0,0,0,-0.0063,-0.0055,-0.0066,-0.0066,-0.0068,-0.0055,-0.0055,-0.0059,-0.0069,-0.0061,-0.0071,-0.0091,-0.0104,-0.0107,-0.0112,-0.0083,-0.0141,-0.014,-0.0139,-0.0043,-0.0033,-0.0024,0,0,0,0,0,0,-0.0054,-0.0055,-0.0067,-0.006,-0.0057,-0.0056,-0.0049,-0.0056,-0.0059,-0.0059,-0.0082,-0.0085,-0.0075,-0.0101,-0.0104,-0.0089,-0.0128,-0.0127,-0.0053,-0.0044,-0.0036,0.0018,-0.013,0,0,0,0,0,-0.0055,-0.0051,-0.0052,-0.0048,-0.0044,-0.0049,-0.0047,-0.0047,-0.0048,-0.005,-0.0062,-0.0075,-0.0075,-0.0076,-0.0087,-0.0078,-0.0077,-0.0067,-0.0059,-0.0052,-0.0014,0.0012,0.0026,-0.0135,-0.0135,-0.0135,0,0,-0.005,-0.0051,-0.0048,-0.0046,-0.0045,-0.0015,-0.0048,-0.0035,-0.0002,-0.0054,-0.0023,-0.0049,-0.0068,-0.0051,-0.0049,-0.0067,-0.0012,-0.0051,-0.0045,-0.0009,0.0015,0.0031,0.0045,-0.0135,-0.0135,-0.0135,0,0,-0.001,-0.0038,-0.0006,-0.0,0.0009,0.0006,0.0012,0.0015,0.0022,0.0039,0.0018,0.0016,-0.0,0.0009,0.0008,0.0048,0.0027,0.0026,0.0116,0.0139,0.0154,0.0167,0.0174,0.0187,0.0032,0.0032,0.0033,0,0.0001,0.0039,0.0005,0.0044,0.0068,0.0022,0.0079,0.0075,0.0079,0.011,0.0061,0.0084,0.0041,0.0107,0.0108,0.0072,0.0074,0.0087,0.0154,0.0167,0.0179,0.0182,0.0195,0.0038,0.0037,0.0036,0.0036,0,0.0078,0.0107,0.0126,0.0161,0.0173,0.0208,0.0205,0.0223,0.021,0.0216,0.0262,0.0213,0.024,0.0206,0.0164,0.0232,0.0202,0.0162,0.0142,0.0202,0.02,0.0212,0.0045,0.0043,0.0042,0.004,0,0,0.0135,0.0176,0.0188,0.0246,0.0245,0.0286,0.0323,0.0377,0.0453,0.041,0.0512,0.046,0.0435,0.0432,0.038,0.0378,0.0422,0.0306,0.0305,0.0333,0.0474,0.0413,0.0419,0.0397,0.04,0.0402,0.0435,0,0.0222,0.0333,0.0318,0.0434,0.0503,0.0478,0.0535,0.0568,0.0578,0.0651,0.0604,0.0659,0.0521,0.0549,0.0523,0.0463,0.0461,0.0418,0.0395,0.0394,0.0351,0.0434,0.0389,0.0411,0.0446,0.0448,0.0449,0,0.0333,0.0396,0.0517,0.0626,0.0654,0.0698,0.0816,0.0867,0.0919,0.0933,0.0955,0.0915,0.0917,0.0786,0.0727,0.0707,0.0607,0.0535,0.0534,0.0462,0.0358,0.0357,0.0431,0.0176,0.0467,0.0465,0.0464,0,0.0459,0.0557,0.0667,0.0695,0.0781,0.0844,0.0896,0.0959,0.1049,0.1128,0.1202,0.1172,0.1197,0.1073,0.0885,0.0824,0.0816,0.0714,0.0573,0.0566,0.0518,0.0502,0.0367,0.0694,0.0694,0.0694,0.0694,0,0.0591,0.0704,0.0734,0.0809,0.0965,0.0975,0.1145,0.1199,0.1293,0.1432,0.1364,0.1472,0.1271,0.1219,0.1007,0.0842,0.0914,0.0629,0.0591,0.0546,0.0533,0.0299,0.0158,0.0695,0.0695,0.0694,0.0694,0,0.0754,0.0765,0.0917,0.1001,0.1034,0.1158,0.1294,0.1418,0.149,0.1673,0.1713,0.1727,0.1661,0.1441,0.1265,0.1032,0.0707,0.0778,0.0728,0.0682,0.0269,0.0137,0.0003,-0.012,0.0632,0.0631,0.063,0,0.0875,0.0942,0.1056,0.1131,0.1173,0.1323,0.1423,0.1515,0.1638,0.1837,0.194,0.1953,0.1984,0.1705,0.1299,0.0966,0.0715,0.0695,0.0555,0.0279,0.0104,0.0004,-0.0098,0.0522,0.052,0.0519,0.0518,0,0.1082,0.1084,0.1182,0.1302,0.1409,0.1557,0.1698,0.1816,0.1946,0.2107,0.2301,0.2359,0.2103,0.1772,0.1303,0.1028,0.0488,0.0655,0.04,0.005,-0.0092,-0.024,0.0448,0.0506,0.0507,0.0508,0.0509,0.0509,0.1224,0.1299,0.1355,0.1482,0.1603,0.1743,0.1881,0.2027,0.2239,0.2483,0.2543,0.2696,0.2188,0.1544,0.1139,0.036,0.0382,0.0114,-0.0008,-0.0071,-0.0237,0.0417,0.0402,0.0403,0.0403,0.0404,0.0404,0,0.1354,0.1394,0.1522,0.1651,0.1785,0.1819,0.2027,0.2164,0.2402,0.2667,0.285,0.2715,0.2048,0.1369,0.0321,-0.0201,-0.041,-0.0477,-0.0642,-0.0704,-0.009,-0.0148,-0.0318,-0.0318,-0.0318,-0.0318,-0.0317,-0.0317,0.1423,0.1521,0.1551,0.1755,0.1853,0.2033,0.215,0.2362,0.2579,0.2889,0.3034,0.3117,0.2564,0.071,-0.0529,-0.0798,-0.1171,-0.1243,-0.1396,-0.1019,-0.0974,-0.0931,-0.1019,-0.1369,-0.137,-0.1976,-0.1982,-0.1987]}],[{"header":{"parameterUnit":"m.s-1","parameterCategory":2,"la1":30.2991,"la2":30.254,"lo1":-89.0895,"lo2":-89.0444,"dy":0.0017,"dx":0.0017,"nx":28,"ny":28,"refTime":"2025-11-18T09:00:00:Z","depth":"2","parameterNumber":2,"parameterNumberName":"U-component_of_CURRENTS"},"data":[0,0,0,0,0,0,0,0,0,0,0,0,0,0,0,0,0,0,0,0,0,0,0,0,0,0,0,0,0,0,0,0,0,0,0,0,0,0,0,0,0,0,0,0,0,0,0,0,0,0,0,0,0,0,0,0,0,0,0.2416,0.2417,0,0.2444,0.2444,0.2444,0.2408,0.2408,0.2407,0.2407,0.2415,0.2415,0.2416,0,0,0,0,0,0,0,0,0,0,0,0,0,0.2293,0.2295,0.2416,0.2417,0.2418,0.2444,0.2444,0.2443,0.2408,0.2408,0.2407,0.2406,0.2414,0.2415,0.2416,0,0,0,0,0,0,0,0,0,0,0,0,0,0.2328,0.2296,0.2415,0.241,0.241,0.2444,0.2444,0.2443,0.2408,0.2408,0.2407,0.2406,0.2414,0.2415,0.2416,0.2437,0,0,0.2419,0.242,0,0,0,0,0,0,0,0,0.2326,0.2332,0.241,0.2411,0.2411,0.243,0.2404,0.2443,0.2409,0.24,0.2407,0.2406,0.2424,0.2424,0.2419,0.2438,0.2438,0.2419,0.242,0.242,0.2421,0,0,0,0,0,0,0,0.2324,0.233,0.2418,0.2411,0.2412,0.2394,0.2398,0.2411,0.2408,0.2401,0.24,0.2418,0.2423,0.2418,0.2419,0.2438,0.2419,0.242,0.2421,0.2421,0.2524,0.2526,0,0,0,0,0,0,0.2342,0.2329,0.2417,0.242,0.2376,0.2398,0.2401,0.2417,0.2409,0.241,0.2418,0.2416,0.2417,0.2418,0.2419,0.2503,0.242,0.2421,0.2422,0.2522,0.2525,0.2527,0,0,0,0,0,0,0.2339,0.2349,0.2416,0.2381,0.239,0.2402,0.2419,0.2418,0.2423,0.2424,0.2422,0.2426,0.2416,0.2418,0.2423,0.25,0.2422,0.2423,0.252,0.2523,0.2526,0.2632,0,0,0,0,0,0,0.2335,0.2348,0.2365,0.2383,0.2393,0.2426,0.2421,0.242,0.2439,0.2436,0.2431,0.243,0.2416,0.2421,0.2424,0.25,0.2423,0.2517,0.2521,0.2525,0.2626,0.2638,0.2649,0,0,0,0,0,0.233,0.2362,0.2365,0.2376,0.2416,0.2427,0.2428,0.2429,0.244,0.2431,0.2431,0.243,0.245,0.2422,0.2425,0.2504,0.2515,0.252,0.2525,0.262,0.2636,0.2649,0,0,0,0,0,0,0.2313,0.2363,0.2366,0.2409,0.2413,0.2424,0.2439,0.2441,0.2436,0.2447,0.2435,0.2434,0.2472,0.2466,0.2436,0.2546,0.2493,0.2498,0.2565,0.2579,0.2591,0.2618,0.2424,0,0,0,0,0,0.2322,0.2353,0.2382,0.2408,0.2424,0.2434,0.2444,0.2447,0.2452,0.245,0.2467,0.2484,0.2495,0.2514,0.2518,0.2571,0.2575,0.2631,0.2642,0.2652,0.2677,0.2717,0.2735,0.2543,0.2543,0.2543,0,0,0.2323,0.2353,0.2372,0.2406,0.2418,0.2444,0.2435,0.2462,0.2486,0.2455,0.2509,0.2516,0.2511,0.2564,0.2586,0.2571,0.2712,0.2659,0.2667,0.2687,0.2724,0.2743,0.276,0.2546,0.2545,0.2545,0,0,0.2334,0.237,0.2397,0.2414,0.2448,0.246,0.2473,0.2511,0.2527,0.2561,0.2563,0.2616,0.2633,0.267,0.2678,0.2761,0.2758,0.2774,0.2877,0.2916,0.2932,0.2946,0.2985,0.3002,0.2798,0.2798,0.2798,0,0.2335,0.2372,0.24,0.243,0.2455,0.2474,0.2502,0.2525,0.2562,0.2598,0.2587,0.2679,0.2691,0.2768,0.2811,0.2795,0.2804,0.2821,0.2932,0.2946,0.2959,0.2995,0.3012,0.2804,0.2803,0.2802,0.2802,0,0.2359,0.2395,0.2417,0.2464,0.2488,0.2517,0.2561,0.2609,0.2648,0.2681,0.2768,0.2795,0.2855,0.2888,0.2877,0.3,0.2972,0.2926,0.2897,0.2985,0.3017,0.3033,0.2812,0.281,0.2808,0.2807,0,0,0.2348,0.242,0.2428,0.2453,0.2514,0.2534,0.2604,0.2666,0.2725,0.2795,0.2883,0.2959,0.3005,0.3022,0.3047,0.3116,0.3235,0.3083,0.3082,0.3124,0.3326,0.3224,0.3231,0.3201,0.3204,0.3207,0.3314,0,0.2354,0.241,0.2448,0.25,0.2537,0.2592,0.265,0.2718,0.2777,0.2875,0.2957,0.3034,0.3042,0.3097,0.317,0.3212,0.3281,0.3211,0.3232,0.3234,0.3134,0.3248,0.3034,0.3104,0.333,0.3333,0.3334,0,0.236,0.2402,0.2453,0.2533,0.2556,0.2591,0.2697,0.275,0.2883,0.2939,0.3052,0.3109,0.3261,0.323,0.3371,0.3322,0.3349,0.3373,0.3375,0.3258,0.3163,0.3051,0.3124,0.3361,0.3359,0.3357,0.3355,0,0.2325,0.2404,0.2442,0.2469,0.2564,0.2607,0.2662,0.2776,0.2838,0.2996,0.3058,0.3214,0.3293,0.3374,0.3451,0.342,0.3573,0.3517,0.345,0.3442,0.3255,0.3224,0.3608,0.3608,0.3608,0.3608,0.3607,0,0.231,0.2344,0.2431,0.2454,0.2511,0.2591,0.2664,0.2747,0.288,0.296,0.309,0.3176,0.333,0.3431,0.349,0.3532,0.36,0.3504,0.3476,0.3285,0.3257,0.3462,0.3444,0.3612,0.3611,0.361,0.3609,0,0.224,0.2308,0.2355,0.2457,0.2491,0.2527,0.2642,0.2694,0.2826,0.2939,0.3001,0.3177,0.3309,0.3433,0.3573,0.3552,0.362,0.3604,0.3376,0.3319,0.3456,0.3442,0.3561,0.3558,0.3556,0.3555,0.3553,0,0.2203,0.2215,0.2321,0.2342,0.2378,0.2451,0.2496,0.2651,0.2713,0.292,0.2968,0.3148,0.3257,0.3421,0.3461,0.3549,0.3594,0.3341,0.3243,0.3497,0.3459,0.3448,0.3437,0.3048,0.3042,0.3038,0.3034,0,0.2109,0.2147,0.2178,0.224,0.2286,0.233,0.2417,0.2468,0.2652,0.2747,0.2887,0.3006,0.3186,0.3194,0.3292,0.3297,0.3318,0.3249,0.3596,0.3076,0.3017,0.2978,0.2983,0.2995,0.2999,0.3002,0.3004,0.3005,0.2018,0.2016,0.2075,0.2108,0.2163,0.2195,0.2197,0.2298,0.2391,0.2529,0.2717,0.2815,0.2946,0.299,0.2949,0.2914,0.312,0.2997,0.301,0.3028,0.2932,0.2871,0.2805,0.2807,0.281,0.2812,0.2814,0,0.1902,0.1924,0.1941,0.1988,0.198,0.2073,0.2127,0.211,0.2155,0.2347,0.2466,0.2388,0.2461,0.2581,0.2493,0.2507,0.2468,0.2395,0.2342,0.2386,0.2424,0.2295,0.2,0.1997,0.1994,0.1991,0,0,0.185,0.1827,0.1837,0.1801,0.183,0.1801,0.1805,0.181,0.1907,0.195,0.2035,0.2324,0.2511,0.2205,0.2202,0.2086,0.2197,0.2003,0.2671,0.2654,0.2686,0.2808,0.2664,0,0,0,0,0]},{"header":{"parameterUnit":"m.s-1","parameterCategory":2,"la1":30.2991,"la2":30.254,"lo1":-89.0895,"lo2":-89.0444,"dy":0.0017,"dx":0.0017,"nx":28,"ny":28,"refTime":"2025-11-18T09:00:00:Z","depth":"2","parameterNumber":3,"parameterNumberName":"V-component_of_CURRENTS"},"data":[0,0,0,0,0,0,0,0,0,0,0,0,0,0,0,0,0,0,0,0,0,0,0,0,0,0,0,0,0,0,0,0,0,0,0,0,0,0,0,0,0,0,0,0,0,0,0,0,0,0,0,0,0,0,0,0,0,0,0.0004,0.0004,0,-0.0063,-0.0064,-0.0065,-0.0118,-0.0118,-0.0118,-0.0119,-0.0284,-0.0288,-0.0292,0,0,0,0,0,0,0,0,0,0,0,0,0,0.0025,0.0025,0.0004,0.0004,0.0003,-0.0063,-0.0064,-0.0065,-0.0118,-0.0118,-0.0119,-0.0119,-0.0282,-0.0287,-0.0292,0,0,0,0,0,0,0,0,0,0,0,0,0,-0.001,0.0025,0.0004,-0.0029,-0.0032,-0.0062,-0.0064,-0.0065,-0.0118,-0.0118,-0.0119,-0.0119,-0.0281,-0.0287,-0.0293,-0.0324,0,0,-0.0312,-0.0315,0,0,0,0,0,0,0,0,-0.0008,-0.0011,-0.0024,-0.0027,-0.0031,-0.008,-0.0117,-0.0156,-0.0118,-0.0089,-0.0119,-0.0119,-0.0222,-0.0233,-0.0248,-0.0332,-0.0339,-0.0313,-0.0317,-0.0319,-0.0321,0,0,0,0,0,0,0,-0.0005,-0.0009,-0.0026,-0.0024,-0.0028,-0.0061,-0.0066,-0.0125,-0.0157,-0.0091,-0.0095,-0.0097,-0.0225,-0.0242,-0.0253,-0.0342,-0.0313,-0.0318,-0.0322,-0.0324,-0.047,-0.047,0,0,0,0,0,0,0.0013,-0.0006,-0.0023,-0.0027,-0.0016,-0.0061,-0.0067,-0.0066,-0.0154,-0.0166,-0.0096,-0.0099,-0.0231,-0.0245,-0.0259,-0.0296,-0.0319,-0.0325,-0.0329,-0.047,-0.047,-0.047,0,0,0,0,0,0,0.0014,0.0012,-0.0021,-0.0016,-0.0022,-0.006,-0.0059,-0.0067,-0.0081,-0.0156,-0.0171,-0.0101,-0.0232,-0.025,-0.0302,-0.0303,-0.0328,-0.0334,-0.047,-0.047,-0.047,-0.0373,0,0,0,0,0,0,0.0015,0.0013,0.0014,-0.0014,-0.0021,-0.0025,-0.0059,-0.0068,-0.008,-0.0084,-0.0166,-0.0181,-0.0234,-0.0292,-0.0308,-0.0312,-0.0338,-0.047,-0.047,-0.047,-0.0376,-0.037,-0.0365,0,0,0,0,0,0.0016,0.0027,0.0015,0.0013,-0.0016,-0.0024,-0.0031,-0.0062,-0.008,-0.0077,-0.0134,-0.0178,-0.0305,-0.0297,-0.0316,-0.0321,-0.0469,-0.047,-0.047,-0.0379,-0.0371,-0.0365,0,0,0,0,0,0,0.0038,0.0022,0.0008,0.0014,0.0001,-0.0031,-0.0034,-0.0054,-0.0096,-0.0105,-0.0179,-0.0198,-0.0245,-0.0297,-0.0285,-0.0365,-0.0396,-0.04,-0.032,-0.0314,-0.0308,-0.0256,-0.0344,0,0,0,0,0,0.0045,0.005,0.0029,0.0035,0.003,-0.0002,-0.0011,-0.0027,-0.0064,-0.0082,-0.0141,-0.0207,-0.0261,-0.0295,-0.0352,-0.0395,-0.0422,-0.0413,-0.0407,-0.0402,-0.0373,-0.0406,-0.0399,-0.0471,-0.0471,-0.0471,0,0,0.0057,0.0049,0.0051,0.004,0.0024,0.0028,-0.0009,-0.0012,-0.0011,-0.0096,-0.0126,-0.0189,-0.0268,-0.0312,-0.0338,-0.0355,-0.0399,-0.0402,-0.0397,-0.0371,-0.0405,-0.0398,-0.0392,-0.0471,-0.0471,-0.0471,0,0,0.0092,0.0076,0.0092,0.0084,0.0072,0.0054,0.0059,0.0027,0.0009,-0.0021,-0.0085,-0.013,-0.0225,-0.0269,-0.0307,-0.0303,-0.0365,-0.0342,-0.0275,-0.0307,-0.0301,-0.0295,-0.0327,-0.0325,-0.0342,-0.0342,-0.0342,0,0.0104,0.0122,0.0096,0.0108,0.011,0.0072,0.0092,0.007,0.0024,0.0013,-0.0017,-0.0129,-0.0195,-0.0237,-0.0237,-0.0286,-0.0319,-0.0292,-0.0296,-0.0291,-0.0287,-0.0321,-0.032,-0.0337,-0.0338,-0.0338,-0.0339,0,0.0149,0.0161,0.0171,0.0174,0.0172,0.0185,0.0158,0.0145,0.0115,0.0089,0.0045,-0.0037,-0.0095,-0.0137,-0.0186,-0.0202,-0.024,-0.028,-0.0303,-0.0273,-0.0312,-0.0313,-0.0331,-0.0332,-0.0334,-0.0335,0,0,0.0185,0.0201,0.0204,0.0222,0.021,0.0219,0.0218,0.0212,0.0219,0.0162,0.0168,0.0075,0.0035,-0.0008,-0.0084,-0.0115,-0.0123,-0.0179,-0.0183,-0.0191,-0.0197,-0.0239,-0.0244,-0.017,-0.017,-0.0169,-0.0238,0,0.0229,0.0275,0.0267,0.0311,0.0333,0.0304,0.0313,0.03,0.027,0.026,0.019,0.0158,0.008,0.0054,0.0014,-0.0088,-0.0119,-0.01,-0.0241,-0.0245,-0.0269,-0.0244,-0.0217,-0.0277,-0.0239,-0.0239,-0.0239,0,0.0272,0.0301,0.0353,0.0389,0.0396,0.0411,0.0423,0.0429,0.0401,0.0375,0.0337,0.0281,0.0232,0.0164,0.0036,0.0046,-0.0054,-0.0134,-0.014,-0.0204,-0.0286,-0.0302,-0.028,-0.0241,-0.0241,-0.0241,-0.024,0,0.0315,0.0361,0.0409,0.0418,0.0446,0.0464,0.0477,0.0462,0.0484,0.0454,0.046,0.0384,0.0349,0.0234,0.0076,0.0054,-0.0066,-0.0122,-0.0252,-0.0257,-0.027,-0.0277,-0.0196,-0.0196,-0.0196,-0.0196,-0.0196,0,0.0359,0.0397,0.0434,0.0459,0.0522,0.052,0.0573,0.0565,0.0579,0.0616,0.0528,0.0536,0.0365,0.0273,0.0123,-0.0058,-0.0032,-0.0219,-0.0269,-0.024,-0.0243,-0.0242,-0.0247,-0.0198,-0.0198,-0.0197,-0.0197,0,0.0383,0.041,0.0469,0.0518,0.0542,0.0582,0.0649,0.069,0.0679,0.0727,0.0731,0.0655,0.0531,0.035,0.0156,-0.0,-0.0165,-0.0241,-0.0193,-0.0236,-0.0347,-0.0346,-0.0381,-0.0383,-0.0384,-0.0386,-0.0387,0,0.0393,0.0428,0.0511,0.0562,0.0585,0.065,0.0707,0.0734,0.0792,0.0803,0.0846,0.0745,0.0695,0.0393,0.0112,-0.0147,-0.0182,-0.0314,-0.0347,-0.0316,-0.0362,-0.0359,-0.0355,-0.0335,-0.0335,-0.0336,-0.0336,0,0.0414,0.0445,0.0502,0.0612,0.0684,0.0771,0.0858,0.0928,0.0969,0.1004,0.1044,0.1011,0.0714,0.0462,0.0085,-0.01,-0.0268,-0.0335,-0.0305,-0.0294,-0.0279,-0.0322,-0.0319,-0.034,-0.034,-0.034,-0.0339,-0.0339,0.0429,0.0479,0.0572,0.0674,0.077,0.0896,0.0988,0.1082,0.1191,0.1274,0.1212,0.1166,0.084,0.0381,0.0049,-0.0307,-0.0305,-0.0425,-0.0421,-0.0416,-0.0401,-0.039,-0.0468,-0.0469,-0.0469,-0.0469,-0.0469,0,0.0463,0.0537,0.0634,0.0775,0.0895,0.0937,0.1101,0.1198,0.134,0.1398,0.1421,0.1128,0.082,0.0463,-0.0065,-0.0396,-0.0414,-0.0492,-0.0432,-0.0427,-0.0422,-0.0404,-0.0475,-0.0475,-0.0476,-0.0477,0,0,0.049,0.0597,0.0659,0.0863,0.0969,0.1142,0.1248,0.1378,0.1468,0.1531,0.1514,0.142,0.0965,0.059,0.0137,-0.0155,-0.0212,-0.022,-0.0185,-0.0056,-0.0047,-0.036,-0.0324,0,0,0,0,0]}],[{"header":{"parameterUnit":"m.s-1","parameterCategory":2,"la1":30.2991,"la2":30.254,"lo1":-89.0895,"lo2":-89.0444,"dy":0.0017,"dx":0.0017,"nx":28,"ny":28,"refTime":"2025-11-18T09:00:00:Z","depth":"4","parameterNumber":2,"parameterNumberName":"U-component_of_CURRENTS"},"data":[0,0,0,0,0,0,0,0,0,0,0,0,0,0,0,0,0,0,0,0,0,0,0,0,0,0,0,0,0,0,0,0,0,0,0,0,0,0,0,0,0,0,0,0,0,0,0,0,0,0,0,0,0,0,0,0,0,0,0.1358,0.1358,0,0.1381,0.1382,0.1382,0.1401,0.1402,0.1402,0.1402,0.139,0.139,0.1389,0,0,0,0,0,0,0,0,0,0,0,0,0,0.1305,0.1306,0.1358,0.1358,0.1359,0.1381,0.1382,0.1382,0.1401,0.1402,0.1402,0.1403,0.139,0.139,0.1389,0,0,0,0,0,0,0,0,0,0,0,0,0,0.1326,0.1306,0.1358,0.1372,0.1374,0.1381,0.1382,0.1382,0.1401,0.1402,0.1402,0.1403,0.1391,0.139,0.1389,0.1372,0,0,0.1386,0.1385,0,0,0,0,0,0,0,0,0.1325,0.1328,0.137,0.1371,0.1373,0.139,0.1359,0.1377,0.1401,0.1389,0.1402,0.1403,0.1388,0.1387,0.1388,0.1371,0.1371,0.1386,0.1385,0.1385,0.1384,0,0,0,0,0,0,0,0.1324,0.1327,0.1365,0.137,0.1372,0.1369,0.1373,0.1362,0.1383,0.139,0.1392,0.1397,0.1388,0.1389,0.1388,0.1371,0.1386,0.1385,0.1384,0.1384,0.1434,0.1436,0,0,0,0,0,0,0.1325,0.1326,0.1365,0.1366,0.1352,0.137,0.1374,0.1383,0.1384,0.1386,0.1397,0.1398,0.1391,0.1389,0.1388,0.1447,0.1385,0.1384,0.1383,0.1432,0.1434,0.1436,0,0,0,0,0,0,0.1324,0.1328,0.1364,0.1348,0.1352,0.1371,0.138,0.1383,0.1414,0.139,0.139,0.1428,0.1391,0.1389,0.1404,0.1444,0.1383,0.1382,0.143,0.1433,0.1435,0.1515,0,0,0,0,0,0,0.1322,0.1328,0.1345,0.1348,0.1353,0.1379,0.138,0.1383,0.1415,0.1418,0.1416,0.1414,0.1391,0.1406,0.1403,0.1441,0.1382,0.1427,0.1431,0.1435,0.151,0.152,0.1529,0,0,0,0,0,0.132,0.1335,0.1346,0.1351,0.1373,0.138,0.1383,0.1396,0.1417,0.1427,0.1436,0.1416,0.1428,0.1406,0.1403,0.1442,0.1426,0.143,0.1434,0.1505,0.1518,0.1529,0,0,0,0,0,0,0.1317,0.1339,0.1351,0.1372,0.1383,0.1384,0.1405,0.1416,0.1433,0.145,0.1429,0.1427,0.1461,0.144,0.1417,0.1469,0.1428,0.1432,0.1483,0.1495,0.1504,0.1526,0.1381,0,0,0,0,0,0.1326,0.1347,0.136,0.1378,0.1393,0.1408,0.142,0.1432,0.1442,0.1453,0.1452,0.146,0.1471,0.1474,0.1475,0.1493,0.1501,0.152,0.153,0.1538,0.1555,0.1608,0.1624,0.1451,0.1451,0.1451,0,0,0.1328,0.1345,0.1356,0.138,0.1398,0.1421,0.1417,0.1448,0.1473,0.1447,0.1489,0.1493,0.1485,0.1513,0.1526,0.1502,0.1591,0.1543,0.155,0.1564,0.1614,0.1631,0.1646,0.1454,0.1453,0.1453,0,0,0.1339,0.1365,0.1388,0.1406,0.1441,0.1449,0.1468,0.1491,0.1512,0.1541,0.1544,0.1579,0.1576,0.159,0.1593,0.1657,0.1644,0.1658,0.1718,0.1769,0.1784,0.1797,0.1827,0.1842,0.1658,0.1658,0.1658,0,0.1345,0.1376,0.1394,0.1424,0.1448,0.147,0.1502,0.1522,0.1547,0.1577,0.1567,0.1626,0.1618,0.1672,0.1696,0.1681,0.1698,0.1672,0.1782,0.1795,0.1808,0.1835,0.1851,0.1663,0.1662,0.1662,0.1661,0,0.137,0.1405,0.1424,0.1472,0.1496,0.1528,0.1559,0.1594,0.1627,0.1651,0.1721,0.1721,0.1762,0.1766,0.1747,0.1835,0.1816,0.1791,0.1753,0.183,0.1854,0.1869,0.1669,0.1667,0.1666,0.1665,0,0,0.136,0.1428,0.144,0.147,0.153,0.1546,0.1607,0.1662,0.1714,0.1753,0.1822,0.186,0.1887,0.1895,0.1891,0.1928,0.2023,0.1901,0.1902,0.193,0.2131,0.1992,0.1995,0.202,0.2023,0.2025,0.2112,0,0.138,0.1436,0.1473,0.1531,0.1561,0.1611,0.166,0.1718,0.1765,0.1832,0.1882,0.1943,0.1928,0.196,0.2005,0.2021,0.2068,0.2002,0.2053,0.2055,0.1921,0.2009,0.2035,0.2123,0.2126,0.2129,0.2131,0,0.1393,0.1432,0.1491,0.1564,0.1587,0.1632,0.1724,0.177,0.1871,0.1913,0.2,0.2037,0.213,0.209,0.2192,0.2153,0.2163,0.2163,0.2166,0.2021,0.1944,0.2031,0.2157,0.2155,0.2153,0.2151,0.215,0,0.1359,0.1442,0.149,0.1516,0.1602,0.1656,0.1713,0.1809,0.1862,0.1983,0.204,0.2147,0.2208,0.2258,0.2281,0.2253,0.2364,0.232,0.2207,0.2196,0.2258,0.2243,0.2398,0.2398,0.2398,0.2398,0.2398,0,0.1345,0.1384,0.1486,0.1508,0.1577,0.1654,0.1738,0.1805,0.1921,0.199,0.2094,0.2158,0.2256,0.2324,0.233,0.232,0.2418,0.2242,0.2221,0.2287,0.2275,0.2268,0.2252,0.2401,0.24,0.24,0.2399,0,0.1276,0.1348,0.14,0.1513,0.1557,0.1605,0.1739,0.179,0.1918,0.2012,0.2064,0.2204,0.2295,0.2363,0.2437,0.2367,0.2373,0.234,0.2419,0.2396,0.2158,0.2145,0.2232,0.2228,0.2224,0.2222,0.2219,0,0.1233,0.126,0.1381,0.1415,0.1471,0.1564,0.1623,0.1767,0.1825,0.2015,0.205,0.22,0.2274,0.2279,0.2353,0.2374,0.2336,0.2316,0.2231,0.2176,0.2148,0.214,0.2131,0.2214,0.2213,0.2212,0.2211,0,0.1145,0.1207,0.1248,0.1328,0.14,0.1459,0.1566,0.1607,0.1771,0.191,0.1995,0.2053,0.2147,0.2202,0.2235,0.2238,0.2318,0.2281,0.2287,0.2206,0.2156,0.2129,0.2124,0.22,0.2202,0.2203,0.2203,0,0.1076,0.1084,0.116,0.1219,0.1295,0.1332,0.1406,0.1496,0.1584,0.1809,0.1834,0.199,0.2129,0.2133,0.2164,0.2163,0.2123,0.203,0.2048,0.2062,0.1964,0.1872,0.1833,0,0,0,0,0,0.0998,0.1003,0.1045,0.1101,0.1169,0.1221,0.1353,0.1436,0.1617,0.1631,0.1732,0.1815,0.1883,0.1965,0.193,0.208,0.2121,0.2028,0.2019,0.2136,0.2149,0.2047,0,0,0,0,0,0,0.0945,0.0974,0.1003,0.0992,0.1009,0.1074,0.1154,0.1277,0.1306,0.1497,0.1552,0.1688,0.1788,0.1881,0.1888,0.1911,0.1864,0.213,0.2125,0.2128,0.214,0.2151,0.2051,0,0,0,0,0]},{"header":{"parameterUnit":"m.s-1","parameterCategory":2,"la1":30.2991,"la2":30.254,"lo1":-89.0895,"lo2":-89.0444,"dy":0.0017,"dx":0.0017,"nx":28,"ny":28,"refTime":"2025-11-18T09:00:00:Z","depth":"4","parameterNumber":3,"parameterNumberName":"V-component_of_CURRENTS"},"data":[0,0,0,0,0,0,0,0,0,0,0,0,0,0,0,0,0,0,0,0,0,0,0,0,0,0,0,0,0,0,0,0,0,0,0,0,0,0,0,0,0,0,0,0,0,0,0,0,0,0,0,0,0,0,0,0,0,0,0.0102,0.0102,0,0.0055,0.0054,0.0054,0.0011,0.0011,0.0011,0.0011,-0.0058,-0.0059,-0.0061,0,0,0,0,0,0,0,0,0,0,0,0,0,0.0099,0.01,0.0102,0.0102,0.0101,0.0055,0.0054,0.0054,0.0012,0.0011,0.0011,0.0011,-0.0057,-0.0059,-0.0061,0,0,0,0,0,0,0,0,0,0,0,0,0,0.0079,0.01,0.0102,0.0077,0.0074,0.0056,0.0054,0.0053,0.0012,0.0011,0.0011,0.0011,-0.0057,-0.0059,-0.0061,-0.0069,0,0,-0.0069,-0.007,0,0,0,0,0,0,0,0,0.008,0.0079,0.0081,0.0079,0.0076,0.0041,0.0028,0.0012,0.0012,0.0032,0.0011,0.001,-0.0025,-0.003,-0.0041,-0.0072,-0.0075,-0.0069,-0.007,-0.0071,-0.0072,0,0,0,0,0,0,0,0.0082,0.008,0.0081,0.0081,0.0078,0.0049,0.0046,0.0025,0.0004,0.0031,0.0028,0.0028,-0.0027,-0.0039,-0.0043,-0.0076,-0.0069,-0.0071,-0.0073,-0.0073,-0.0136,-0.0137,0,0,0,0,0,0,0.0096,0.0082,0.0082,0.0079,0.008,0.005,0.0046,0.005,0.0005,-0.0002,0.0028,0.0026,-0.0035,-0.004,-0.0046,-0.0062,-0.0071,-0.0074,-0.0075,-0.0136,-0.0136,-0.0137,0,0,0,0,0,0,0.0097,0.0097,0.0084,0.0081,0.0078,0.0051,0.0056,0.005,0.004,0.0003,-0.0004,0.0025,-0.0035,-0.0043,-0.0064,-0.0065,-0.0075,-0.0077,-0.0136,-0.0136,-0.0137,-0.0091,0,0,0,0,0,0,0.0097,0.0098,0.0104,0.0083,0.0079,0.008,0.0056,0.0049,0.0042,0.0038,-0.0001,-0.0009,-0.0036,-0.006,-0.0067,-0.0068,-0.0079,-0.0136,-0.0136,-0.0136,-0.0093,-0.009,-0.0088,0,0,0,0,0,0.0097,0.0113,0.0105,0.0104,0.0089,0.0081,0.0076,0.0053,0.0042,0.0042,0.0012,-0.0007,-0.0068,-0.0062,-0.007,-0.0072,-0.0135,-0.0136,-0.0136,-0.0094,-0.0091,-0.0088,0,0,0,0,0,0,0.0117,0.011,0.01,0.0114,0.0101,0.0075,0.0075,0.006,0.0035,0.0032,-0.0006,-0.0015,-0.0038,-0.006,-0.0053,-0.0093,-0.0106,-0.0108,-0.0071,-0.0069,-0.0067,-0.0059,-0.0081,0,0,0,0,0,0.0126,0.0135,0.0119,0.013,0.0126,0.0101,0.0094,0.008,0.0058,0.0047,0.002,-0.0013,-0.0046,-0.006,-0.009,-0.0105,-0.0138,-0.0113,-0.0111,-0.0109,-0.0109,-0.0167,-0.017,-0.0138,-0.0138,-0.0138,0,0,0.0138,0.0135,0.014,0.0135,0.0121,0.012,0.0095,0.0093,0.0088,0.0044,0.003,-0.0005,-0.005,-0.0073,-0.0085,-0.0089,-0.0133,-0.011,-0.0107,-0.0109,-0.0168,-0.0171,-0.0174,-0.0139,-0.0139,-0.0139,0,0,0.0163,0.0163,0.0173,0.0166,0.0155,0.0141,0.0144,0.0122,0.0108,0.0094,0.0053,0.0018,-0.0017,-0.0057,-0.0081,-0.0084,-0.0121,-0.0091,-0.0071,-0.0127,-0.013,-0.0133,-0.0167,-0.0174,-0.0087,-0.0087,-0.0087,0,0.0174,0.0187,0.0175,0.0179,0.0179,0.0154,0.0162,0.0145,0.0119,0.0106,0.0097,0.002,-0.0014,-0.0061,-0.0063,-0.0079,-0.0109,-0.0075,-0.0123,-0.0127,-0.0131,-0.0166,-0.0174,-0.0085,-0.0085,-0.0086,-0.0086,0,0.0199,0.0209,0.0217,0.0214,0.0213,0.0218,0.0198,0.019,0.0174,0.015,0.0107,0.0054,0.0007,-0.0011,-0.0036,-0.0083,-0.0094,-0.0115,-0.0127,-0.0132,-0.0168,-0.0177,-0.0082,-0.0083,-0.0084,-0.0084,0,0,0.0219,0.0232,0.0233,0.0243,0.0233,0.0238,0.0233,0.0217,0.0212,0.0172,0.0153,0.0085,0.0052,0.0021,-0.0023,-0.0071,-0.012,-0.0097,-0.0101,-0.0125,-0.023,-0.0214,-0.0222,-0.015,-0.0152,-0.0153,-0.024,0,0.0238,0.0264,0.0262,0.0286,0.0296,0.028,0.0281,0.0263,0.0239,0.0215,0.0144,0.0111,0.0065,0.0046,-0.0014,-0.0094,-0.0144,-0.0094,-0.0228,-0.0232,-0.0212,-0.0232,-0.0158,-0.0246,-0.0249,-0.025,-0.0251,0,0.0252,0.0272,0.0302,0.0327,0.033,0.034,0.034,0.0338,0.0293,0.0273,0.0216,0.0165,0.0087,0.0053,-0.0096,-0.0061,-0.0141,-0.0205,-0.021,-0.0218,-0.0232,-0.0247,-0.0268,-0.0267,-0.0265,-0.0264,-0.0263,0,0.0269,0.0298,0.0329,0.0335,0.0355,0.0367,0.0377,0.0353,0.0363,0.031,0.0307,0.0196,0.0155,0.0029,-0.01,-0.01,-0.026,-0.0278,-0.0342,-0.0341,-0.0349,-0.0345,-0.0389,-0.0389,-0.0388,-0.0388,-0.0388,0,0.0284,0.0308,0.0343,0.036,0.0403,0.0402,0.0435,0.0425,0.0416,0.043,0.0342,0.0321,0.0147,0.004,-0.0089,-0.0238,-0.0257,-0.0344,-0.0369,-0.0326,-0.0319,-0.0355,-0.035,-0.0391,-0.0391,-0.039,-0.0389,0,0.029,0.0311,0.0353,0.0393,0.0413,0.0443,0.0497,0.052,0.0503,0.0518,0.051,0.0409,0.0272,0.0098,-0.0104,-0.0208,-0.036,-0.041,-0.0336,-0.0355,-0.0406,-0.0398,-0.0489,-0.049,-0.049,-0.049,-0.049,0,0.0293,0.0316,0.0385,0.0425,0.0448,0.05,0.0543,0.056,0.0592,0.0574,0.0586,0.0468,0.038,0.0116,-0.0079,-0.0329,-0.0366,-0.0443,-0.0444,-0.0404,-0.042,-0.0411,-0.0402,-0.0491,-0.0491,-0.0491,-0.0491,0,0.0303,0.0331,0.0375,0.0461,0.0521,0.0589,0.0652,0.0686,0.0706,0.0691,0.0655,0.0517,0.036,0.0138,-0.0058,-0.0239,-0.0394,-0.0446,-0.0447,-0.0448,-0.0407,-0.042,-0.0411,-0.0492,-0.0491,-0.0491,-0.0491,0,0.0317,0.0353,0.0424,0.0499,0.058,0.0661,0.0689,0.0734,0.0765,0.0748,0.0732,0.0558,0.0449,0.0184,0.0004,-0.0174,-0.0222,-0.028,-0.0291,-0.0292,-0.0214,-0.0131,-0.0157,0,0,0,0,0,0.0328,0.0383,0.0458,0.0551,0.0632,0.0683,0.076,0.0782,0.0803,0.0795,0.0769,0.0627,0.0362,0.024,0.0068,-0.0016,-0.0263,-0.0225,-0.0338,-0.0496,-0.0495,-0.0437,0,0,0,0,0,0,0.0342,0.0415,0.0462,0.0581,0.0651,0.0749,0.0802,0.0816,0.0812,0.0799,0.0662,0.0585,0.0325,0.0463,0.0065,0.0009,-0.0086,-0.0355,-0.0358,-0.0496,-0.0496,-0.0495,-0.0434,0,0,0,0,0]}]]